Time,TemperatureF,DewpointF,PressureIn,WindDirection,WindDirectionDegrees,WindSpeedMPH,WindSpeedGustMPH,Humidity,HourlyPrecipIn,Conditions,Clouds,dailyrainin,SoftwareType,DateUTC
2013-05-20 00:02:00,71.0,-99.9,-100.00,WSW,256,7.0,-999.0,-999,0.00,,,0.00,,2013-05-20 05:02:00,
2013-05-20 00:12:00,71.0,-99.9,-100.00,WSW,256,7.0,-999.0,-999,0.00,,,0.00,,2013-05-20 05:12:00,
2013-05-20 00:22:00,71.0,-99.9,-100.00,WSW,256,7.0,-999.0,-999,0.00,,,0.00,,2013-05-20 05:22:00,
2013-05-20 00:32:00,69.0,-99.9,-100.00,NNE,15,2.0,-999.0,-999,0.00,,,0.00,,2013-05-20 05:32:00,
2013-05-20 00:42:00,69.0,-99.9,-100.00,NNE,15,2.0,-999.0,-999,0.00,,,0.00,,2013-05-20 05:42:00,
2013-05-20 00:52:00,69.0,-99.9,-100.00,NNE,15,2.0,-999.0,-999,0.00,,,0.00,,2013-05-20 05:52:00,
2013-05-20 01:01:00,69.0,-99.9,-100.00,NNE,33,3.0,-999.0,-999,0.00,,,0.00,,2013-05-20 06:01:00,
2013-05-20 01:11:00,69.0,-99.9,-100.00,NNE,33,3.0,-999.0,-999,0.00,,,0.00,,2013-05-20 06:11:00,
2013-05-20 01:22:00,69.0,-99.9,-100.00,NNE,33,3.0,-999.0,-999,0.00,,,0.00,,2013-05-20 06:22:00,
2013-05-20 01:32:00,70.0,-99.9,-100.00,WSW,253,9.0,-999.0,-999,0.00,,,0.00,,2013-05-20 06:32:00,
2013-05-20 01:42:00,70.0,-99.9,-100.00,WSW,253,9.0,-999.0,-999,0.00,,,0.00,,2013-05-20 06:42:00,
2013-05-20 01:52:00,70.0,-99.9,-100.00,WSW,253,9.0,-999.0,-999,0.00,,,0.00,,2013-05-20 06:52:00,
2013-05-20 02:02:00,68.0,-99.9,-100.00,WSW,257,14.0,-999.0,-999,0.00,,,0.00,,2013-05-20 07:02:00,
2013-05-20 02:12:00,68.0,-99.9,-100.00,WSW,257,14.0,-999.0,-999,0.00,,,0.00,,2013-05-20 07:12:00,
2013-05-20 02:22:00,68.0,-99.9,-100.00,WSW,257,14.0,-999.0,-999,0.00,,,0.00,,2013-05-20 07:22:00,
2013-05-20 02:32:00,67.0,-99.9,-100.00,WSW,242,3.0,-999.0,-999,0.00,,,0.00,,2013-05-20 07:32:00,
2013-05-20 02:42:00,67.0,-99.9,-100.00,WSW,242,3.0,-999.0,-999,0.00,,,0.00,,2013-05-20 07:42:00,
2013-05-20 02:52:00,67.0,-99.9,-100.00,WSW,242,3.0,-999.0,-999,0.00,,,0.00,,2013-05-20 07:52:00,
2013-05-20 03:02:00,66.0,-99.9,-100.00,WSW,241,5.0,-999.0,-999,0.00,,,0.00,,2013-05-20 08:02:00,
2013-05-20 03:11:00,66.0,-99.9,-100.00,WSW,241,5.0,-999.0,-999,0.00,,,0.00,,2013-05-20 08:11:00,
2013-05-20 03:22:00,66.0,-99.9,-100.00,WSW,241,5.0,-999.0,-999,0.00,,,0.00,,2013-05-20 08:22:00,
2013-05-20 03:32:00,65.0,-99.9,-100.00,SSW,212,5.0,-999.0,-999,0.01,,,0.01,,2013-05-20 08:32:00,
2013-05-20 03:42:00,65.0,-99.9,-100.00,SSW,212,5.0,-999.0,-999,0.01,,,0.01,,2013-05-20 08:42:00,
2013-05-20 03:52:00,65.0,-99.9,-100.00,SSW,212,5.0,-999.0,-999,0.01,,,0.01,,2013-05-20 08:52:00,
2013-05-20 04:02:00,63.0,-99.9,-100.00,SSE,162,2.0,-999.0,-999,0.08,,,0.08,,2013-05-20 09:02:00,
2013-05-20 04:12:00,63.0,-99.9,-100.00,SSE,162,2.0,-999.0,-999,0.08,,,0.08,,2013-05-20 09:12:00,
2013-05-20 04:22:00,63.0,-99.9,-100.00,SSE,162,2.0,-999.0,-999,0.08,,,0.08,,2013-05-20 09:22:00,
2013-05-20 04:33:00,62.0,-99.9,-100.00,SSE,152,3.0,-999.0,-999,0.14,,,0.15,,2013-05-20 09:33:00,
2013-05-20 04:43:00,62.0,-99.9,-100.00,SSE,152,3.0,-999.0,-999,0.14,,,0.15,,2013-05-20 09:43:00,
2013-05-20 04:53:00,62.0,-99.9,-100.00,SSE,152,3.0,-999.0,-999,0.14,,,0.15,,2013-05-20 09:53:00,
2013-05-20 05:03:00,63.0,-99.9,-100.00,SE,138,8.0,-999.0,-999,0.10,,,0.18,,2013-05-20 10:03:00,
2013-05-20 05:12:00,63.0,-99.9,-100.00,SE,138,8.0,-999.0,-999,0.10,,,0.18,,2013-05-20 10:12:00,
2013-05-20 05:22:00,63.0,-99.9,-100.00,SE,138,8.0,-999.0,-999,0.10,,,0.18,,2013-05-20 10:22:00,
2013-05-20 05:33:00,63.0,-99.9,-100.00,SW,219,8.0,-999.0,-999,0.04,,,0.19,,2013-05-20 10:33:00,
2013-05-20 05:42:00,63.0,-99.9,-100.00,SW,219,8.0,-999.0,-999,0.04,,,0.19,,2013-05-20 10:42:00,
2013-05-20 05:53:00,63.0,-99.9,-100.00,SW,219,8.0,-999.0,-999,0.04,,,0.19,,2013-05-20 10:53:00,
2013-05-20 06:03:00,63.0,-99.9,-100.00,SSW,195,4.0,-999.0,-999,0.01,,,0.19,,2013-05-20 11:03:00,
2013-05-20 06:12:00,63.0,-99.9,-100.00,SSW,195,4.0,-999.0,-999,0.01,,,0.19,,2013-05-20 11:12:00,
2013-05-20 06:22:00,63.0,-99.9,-100.00,SSW,195,4.0,-999.0,-999,0.01,,,0.19,,2013-05-20 11:22:00,
2013-05-20 06:32:00,63.0,-99.9,-100.00,South,184,3.0,-999.0,-999,0.00,,,0.19,,2013-05-20 11:32:00,
2013-05-20 06:42:00,63.0,-99.9,-100.00,South,184,3.0,-999.0,-999,0.00,,,0.19,,2013-05-20 11:42:00,
2013-05-20 06:52:00,63.0,-99.9,-100.00,South,184,3.0,-999.0,-999,0.00,,,0.19,,2013-05-20 11:52:00,
2013-05-20 07:01:00,63.0,-99.9,-100.00,South,172,3.0,-999.0,-999,0.00,,,0.19,,2013-05-20 12:01:00,
2013-05-20 07:12:00,63.0,-99.9,-100.00,South,172,3.0,-999.0,-999,0.00,,,0.19,,2013-05-20 12:12:00,
2013-05-20 07:21:00,63.0,-99.9,-100.00,South,172,3.0,-999.0,-999,0.00,,,0.19,,2013-05-20 12:21:00,
2013-05-20 07:30:00,66.0,-99.9,-100.00,SSE,161,5.0,-999.0,-999,0.00,,,0.19,,2013-05-20 12:30:00,
2013-05-20 07:32:00,64.0,-99.9,-100.00,SSE,159,5.0,-999.0,-999,0.00,,,0.19,,2013-05-20 12:32:00,
2013-05-20 07:42:00,64.0,-99.9,-100.00,SSE,159,5.0,-999.0,-999,0.00,,,0.19,,2013-05-20 12:42:00,
2013-05-20 07:52:00,64.0,-99.9,-100.00,SSE,159,5.0,-999.0,-999,0.00,,,0.19,,2013-05-20 12:52:00,
2013-05-20 08:01:00,66.0,-99.9,-100.00,SSE,161,5.0,-999.0,-999,0.00,,,0.19,,2013-05-20 13:01:00,
2013-05-20 08:11:00,66.0,-99.9,-100.00,SSE,161,5.0,-999.0,-999,0.00,,,0.19,,2013-05-20 13:11:00,
2013-05-20 08:22:00,66.0,-99.9,-100.00,SSE,161,5.0,-999.0,-999,0.00,,,0.19,,2013-05-20 13:22:00,
2013-05-20 09:01:00,69.0,-99.9,-100.00,SSE,162,6.0,-999.0,-999,0.00,,,0.19,,2013-05-20 14:01:00,
2013-05-20 09:11:00,69.0,-99.9,-100.00,SSE,162,6.0,-999.0,-999,0.00,,,0.19,,2013-05-20 14:11:00,
2013-05-20 09:22:00,69.0,-99.9,-100.00,SSE,162,6.0,-999.0,-999,0.00,,,0.19,,2013-05-20 14:22:00,
2013-05-20 09:32:00,69.0,-99.9,-100.00,SSE,155,6.0,-999.0,-999,0.00,,,0.19,,2013-05-20 14:32:00,
2013-05-20 09:42:00,69.0,-99.9,-100.00,SSE,155,6.0,-999.0,-999,0.00,,,0.19,,2013-05-20 14:42:00,
2013-05-20 09:53:00,69.0,-99.9,-100.00,SSE,155,6.0,-999.0,-999,0.00,,,0.19,,2013-05-20 14:53:00,
2013-05-20 10:00:00,72.0,-99.9,-100.00,South,176,3.0,-999.0,-999,0.00,,,0.19,,2013-05-20 15:00:00,
2013-05-20 10:01:00,72.0,-99.9,-100.00,SSE,153,3.0,-999.0,-999,0.00,,,0.19,,2013-05-20 15:01:00,
2013-05-20 10:12:00,72.0,-99.9,-100.00,SSE,153,3.0,-999.0,-999,0.00,,,0.19,,2013-05-20 15:12:00,
2013-05-20 10:22:00,72.0,-99.9,-100.00,SSE,153,3.0,-999.0,-999,0.00,,,0.19,,2013-05-20 15:22:00,
2013-05-20 10:34:00,72.0,-99.9,-100.00,South,176,3.0,-999.0,-999,0.00,,,0.19,,2013-05-20 15:34:00,
2013-05-20 10:43:00,72.0,-99.9,-100.00,South,176,3.0,-999.0,-999,0.00,,,0.19,,2013-05-20 15:43:00,
2013-05-20 10:53:00,72.0,-99.9,-100.00,South,176,3.0,-999.0,-999,0.00,,,0.19,,2013-05-20 15:53:00,
2013-05-20 11:33:00,75.0,-99.9,-100.00,SSW,213,10.0,-999.0,-999,0.00,,,0.19,,2013-05-20 16:33:00,
2013-05-20 11:42:00,75.0,-99.9,-100.00,SSW,213,10.0,-999.0,-999,0.00,,,0.19,,2013-05-20 16:42:00,
2013-05-20 11:53:00,75.0,-99.9,-100.00,SSW,213,10.0,-999.0,-999,0.00,,,0.19,,2013-05-20 16:53:00,
2013-05-20 12:03:00,76.0,-99.9,-100.00,SSW,210,9.0,-999.0,-999,0.00,,,0.19,,2013-05-20 17:03:00,
2013-05-20 12:12:00,76.0,-99.9,-100.00,SSW,210,9.0,-999.0,-999,0.00,,,0.19,,2013-05-20 17:12:00,
2013-05-20 12:22:00,76.0,-99.9,-100.00,SSW,210,9.0,-999.0,-999,0.00,,,0.19,,2013-05-20 17:22:00,
2013-05-20 12:33:00,77.0,-99.9,-100.00,SW,227,12.0,-999.0,-999,0.00,,,0.19,,2013-05-20 17:33:00,
2013-05-20 12:45:00,77.0,-99.9,-100.00,SW,227,12.0,-999.0,-999,0.00,,,0.19,,2013-05-20 17:45:00,
2013-05-20 12:53:00,77.0,-99.9,-100.00,SW,227,12.0,-999.0,-999,0.00,,,0.19,,2013-05-20 17:53:00,
2013-05-20 13:02:00,75.0,-99.9,-100.00,SW,227,16.0,-999.0,-999,0.00,,,0.19,,2013-05-20 18:02:00,
2013-05-20 13:12:00,75.0,-99.9,-100.00,SW,227,16.0,-999.0,-999,0.00,,,0.19,,2013-05-20 18:12:00,
2013-05-20 13:23:00,75.0,-99.9,-100.00,SW,227,16.0,-999.0,-999,0.00,,,0.19,,2013-05-20 18:23:00,
2013-05-20 13:30:00,74.0,-99.9,-100.00,SSE,152,6.0,-999.0,-999,0.00,,,0.19,,2013-05-20 18:30:00,
2013-05-20 13:33:00,71.0,-99.9,-100.00,SW,224,8.0,-999.0,-999,0.00,,,0.19,,2013-05-20 18:33:00,
2013-05-20 13:42:00,71.0,-99.9,-100.00,SW,224,8.0,-999.0,-999,0.00,,,0.19,,2013-05-20 18:42:00,
2013-05-20 13:55:00,71.0,-99.9,-100.00,SW,224,8.0,-999.0,-999,0.00,,,0.19,,2013-05-20 18:55:00,
2013-05-20 14:04:00,74.0,-99.9,-100.00,SSE,152,6.0,-999.0,-999,0.00,,,0.19,,2013-05-20 19:04:00,
2013-05-20 14:12:00,74.0,-99.9,-100.00,SSE,152,6.0,-999.0,-999,0.00,,,0.19,,2013-05-20 19:12:00,
2013-05-20 14:22:00,74.0,-99.9,-100.00,SSE,152,6.0,-999.0,-999,0.00,,,0.19,,2013-05-20 19:22:00,
2013-05-20 15:02:00,79.0,-99.9,-100.00,South,176,4.0,-999.0,-999,0.00,,,0.19,,2013-05-20 20:02:00,
2013-05-20 15:12:00,79.0,-99.9,-100.00,South,176,4.0,-999.0,-999,0.00,,,0.19,,2013-05-20 20:12:00,
2013-05-20 15:22:00,79.0,-99.9,-100.00,South,176,4.0,-999.0,-999,0.00,,,0.19,,2013-05-20 20:22:00,
2013-05-20 15:30:00,83.0,-99.9,-100.00,SSW,210,4.0,-999.0,-999,0.00,,,0.19,,2013-05-20 20:30:00,
2013-05-20 15:33:00,83.0,-99.9,-100.00,South,171,3.0,-999.0,-999,0.00,,,0.19,,2013-05-20 20:33:00,
2013-05-20 15:42:00,83.0,-99.9,-100.00,South,171,3.0,-999.0,-999,0.00,,,0.19,,2013-05-20 20:42:00,
2013-05-20 15:52:00,83.0,-99.9,-100.00,South,171,3.0,-999.0,-999,0.00,,,0.19,,2013-05-20 20:52:00,
2013-05-20 16:01:00,83.0,-99.9,-100.00,SSW,210,4.0,-999.0,-999,0.00,,,0.19,,2013-05-20 21:01:00,
2013-05-20 16:11:00,83.0,-99.9,-100.00,SSW,210,4.0,-999.0,-999,0.00,,,0.19,,2013-05-20 21:11:00,
2013-05-20 16:22:00,83.0,-99.9,-100.00,SSW,210,4.0,-999.0,-999,0.00,,,0.19,,2013-05-20 21:22:00,
2013-05-20 17:03:00,85.0,-99.9,-100.00,South,190,5.0,-999.0,-999,0.00,,,0.19,,2013-05-20 22:03:00,
2013-05-20 17:13:00,85.0,-99.9,-100.00,South,190,5.0,-999.0,-999,0.00,,,0.19,,2013-05-20 22:13:00,
2013-05-20 17:23:00,85.0,-99.9,-100.00,South,190,5.0,-999.0,-999,0.00,,,0.19,,2013-05-20 22:23:00,
2013-05-20 17:33:00,84.0,-99.9,-100.00,SSE,156,5.0,-999.0,-999,0.00,,,0.19,,2013-05-20 22:33:00,
2013-05-20 17:42:00,84.0,-99.9,-100.00,SSE,156,5.0,-999.0,-999,0.00,,,0.19,,2013-05-20 22:42:00,
2013-05-20 17:53:00,84.0,-99.9,-100.00,SSE,156,5.0,-999.0,-999,0.00,,,0.19,,2013-05-20 22:53:00,
2013-05-20 18:03:00,80.0,-99.9,-100.00,South,171,4.0,-999.0,-999,0.00,,,0.19,,2013-05-20 23:03:00,
2013-05-20 18:12:00,80.0,-99.9,-100.00,South,171,4.0,-999.0,-999,0.00,,,0.19,,2013-05-20 23:12:00,
2013-05-20 18:22:00,80.0,-99.9,-100.00,South,171,4.0,-999.0,-999,0.00,,,0.19,,2013-05-20 23:22:00,
2013-05-20 18:32:00,79.0,-99.9,-100.00,SSE,164,4.0,-999.0,-999,0.00,,,0.19,,2013-05-20 23:32:00,
2013-05-20 18:42:00,79.0,-99.9,-100.00,SSE,164,4.0,-999.0,-999,0.00,,,0.19,,2013-05-20 23:42:00,
2013-05-20 18:53:00,79.0,-99.9,-100.00,SSE,164,4.0,-999.0,-999,0.00,,,0.19,,2013-05-20 23:53:00,
2013-05-20 19:01:00,75.0,-99.9,-100.00,South,171,3.0,-999.0,-999,0.00,,,0.19,,2013-05-21 00:01:00,
2013-05-20 19:12:00,75.0,-99.9,-100.00,South,171,3.0,-999.0,-999,0.00,,,0.19,,2013-05-21 00:12:00,
2013-05-20 19:22:00,75.0,-99.9,-100.00,South,171,3.0,-999.0,-999,0.00,,,0.19,,2013-05-21 00:22:00,
2013-05-20 19:32:00,74.0,-99.9,-100.00,South,182,1.0,-999.0,-999,0.00,,,0.19,,2013-05-21 00:32:00,
2013-05-20 19:42:00,74.0,-99.9,-100.00,South,182,1.0,-999.0,-999,0.00,,,0.19,,2013-05-21 00:42:00,
2013-05-20 19:52:00,74.0,-99.9,-100.00,South,182,1.0,-999.0,-999,0.00,,,0.19,,2013-05-21 00:52:00,
2013-05-20 20:01:00,71.0,-99.9,-100.00,NNW,346,2.0,-999.0,-999,0.02,,,0.21,,2013-05-21 01:01:00,
2013-05-20 20:12:00,71.0,-99.9,-100.00,NNW,346,2.0,-999.0,-999,0.02,,,0.21,,2013-05-21 01:12:00,
2013-05-20 20:22:00,71.0,-99.9,-100.00,NNW,346,2.0,-999.0,-999,0.02,,,0.21,,2013-05-21 01:22:00,
2013-05-20 20:32:00,65.0,-99.9,-100.00,SE,144,1.0,-999.0,-999,1.13,,,1.32,,2013-05-21 01:32:00,
2013-05-20 20:42:00,65.0,-99.9,-100.00,SE,144,1.0,-999.0,-999,1.13,,,1.32,,2013-05-21 01:42:00,
2013-05-20 20:53:00,65.0,-99.9,-100.00,SE,144,1.0,-999.0,-999,1.13,,,1.32,,2013-05-21 01:53:00,
2013-05-20 21:02:00,64.0,-99.9,-100.00,South,177,2.0,-999.0,-999,1.15,,,1.36,,2013-05-21 02:02:00,
2013-05-20 21:11:00,64.0,-99.9,-100.00,South,177,2.0,-999.0,-999,1.15,,,1.36,,2013-05-21 02:11:00,
2013-05-20 21:22:00,64.0,-99.9,-100.00,South,177,2.0,-999.0,-999,1.15,,,1.36,,2013-05-21 02:22:00,
2013-05-20 21:32:00,63.0,-99.9,-100.00,SSE,157,6.0,-999.0,-999,0.11,,,1.43,,2013-05-21 02:32:00,
2013-05-20 21:42:00,63.0,-99.9,-100.00,SSE,157,6.0,-999.0,-999,0.11,,,1.43,,2013-05-21 02:42:00,
2013-05-20 21:52:00,63.0,-99.9,-100.00,SSE,157,6.0,-999.0,-999,0.11,,,1.43,,2013-05-21 02:52:00,
2013-05-20 22:02:00,64.0,-99.9,-100.00,SE,143,6.0,-999.0,-999,0.11,,,1.47,,2013-05-21 03:02:00,
2013-05-20 22:11:00,64.0,-99.9,-100.00,SE,143,6.0,-999.0,-999,0.11,,,1.47,,2013-05-21 03:11:00,
2013-05-20 22:22:00,64.0,-99.9,-100.00,SE,143,6.0,-999.0,-999,0.11,,,1.47,,2013-05-21 03:22:00,
2013-05-20 22:30:00,63.0,-99.9,-100.00,South,175,2.0,-999.0,-999,0.04,,,1.51,,2013-05-21 03:30:00,
2013-05-20 22:33:00,64.0,-99.9,-100.00,South,182,3.0,-999.0,-999,0.07,,,1.50,,2013-05-21 03:33:00,
2013-05-20 22:43:00,64.0,-99.9,-100.00,South,182,3.0,-999.0,-999,0.07,,,1.50,,2013-05-21 03:43:00,
2013-05-20 22:54:00,64.0,-99.9,-100.00,South,182,3.0,-999.0,-999,0.07,,,1.50,,2013-05-21 03:54:00,
2013-05-20 23:03:00,63.0,-99.9,-100.00,South,175,2.0,-999.0,-999,0.04,,,1.51,,2013-05-21 04:03:00,
2013-05-20 23:13:00,63.0,-99.9,-100.00,South,175,2.0,-999.0,-999,0.04,,,1.51,,2013-05-21 04:13:00,
2013-05-20 23:23:00,63.0,-99.9,-100.00,South,175,2.0,-999.0,-999,0.04,,,1.51,,2013-05-21 04:23:00,